Location: Bothwell
(42.3833°S, 147.0000°E)
Time: 05:37:09
(UTC+11:00)

POLYITAN 1 - Visible Passes

Search period start: 30 January 2023 00:00
Search period end: 09 February 2023 00:00
Orbit: 580 x 601 km, 98.0° (Epoch: 28 January)

Date Brightness Start Highest point End Pass type
(mag) Time Alt. Az. Time Alt. Az. Time Alt. Az.
30 Jan ? 02:26:05 48° S 02:26:05 48° S 02:29:16 10° S visible
31 Jan ? 02:34:26 45° SSW 02:34:26 45° SSW 02:37:28 10° SSW visible
01 Feb ? 01:06:14 12° ESE 01:06:25 12° ESE 01:08:03 10° SE visible
01 Feb ? 02:42:47 39° SSW 02:42:47 39° SSW 02:45:37 10° SSW visible
02 Feb ? 01:14:34 14° ESE 01:14:34 14° ESE 01:16:47 10° SSE visible
02 Feb ? 02:51:07 34° SW 02:51:07 34° SW 02:53:44 10° SSW visible
03 Feb ? 01:22:54 17° ESE 01:22:54 17° ESE 01:25:19 10° SSE visible
03 Feb ? 02:59:27 29° SW 02:59:27 29° SW 03:01:48 10° SSW visible
04 Feb ? 01:31:12 20° SE 01:31:12 20° SE 01:33:45 10° SSE visible
04 Feb ? 03:07:46 24° SW 03:07:46 24° SW 03:09:50 10° SSW visible
05 Feb ? 01:39:31 23° SE 01:39:31 23° SE 01:42:05 10° SSE visible
05 Feb ? 03:16:04 20° SW 03:16:04 20° SW 03:17:48 10° SSW visible
06 Feb ? 01:47:48 25° SE 01:47:48 25° SE 01:50:23 10° S visible
06 Feb ? 03:24:21 17° SW 03:24:21 17° SW 03:25:42 10° SW visible
07 Feb ? 01:56:05 28° SSE 01:56:05 28° SSE 01:58:37 10° S visible
07 Feb ? 03:32:38 14° SW 03:32:38 14° SW 03:33:33 10° SW visible
08 Feb ? 02:04:21 29° SSE 02:04:21 29° SSE 02:06:49 10° S visible
08 Feb ? 03:40:54 11° SW 03:40:54 11° SW 03:41:18 10° SW visible
